FW8343 Weather Reports


Display with metric or nautical units.
time (UTC)temp
F
wind
direction
speed
MPH
gust
MPH
rain 1hr
in
rain 24hr
in
rain mn
in
humidity
%
barometer
mb
20260904222017 67 0 0.0 3.0 0.00 0.00 0.00 94 1016.7
20260904221534 68 308 0.0 3.0 0.00 0.00 0.00 94 1016.6
20260904221020 68 0 0.0 3.0 0.00 0.00 0.00 94 1016.5
20260904220521 68 175 0.0 3.0 0.00 0.00 0.00 93 1016.5
20260904220037 68 0 0.0 3.0 0.00 0.00 0.00 93 1016.4
20260904215520 69 0 0.0 3.0 0.00 0.00 0.00 93 1016.3
20260904215019 69 0 0.0 3.0 0.00 0.00 0.00 93 1016.3
20260904214537 69 0 0.0 3.0 0.00 0.00 0.00 92 1016.3
20260904214019 69 278 0.0 2.0 0.00 0.00 0.00 91 1016.3
20260904213518 70 0 0.0 2.0 0.00 0.00 0.00 91 1016.2
20260904213036 70 0 0.0 2.0 0.00 0.00 0.00 91 1016.2
20260904212519 70 0 0.0 2.0 0.00 0.00 0.00 91 1016.2
20260904212023 71 0 0.0 1.0 0.00 0.00 0.00 91 1016.2
20260904211534 71 0 0.0 1.0 0.00 0.00 0.00 91 1016.1
20260904211021 71 0 0.0 2.0 0.00 0.00 0.00 91 1016.1
20260904210520 71 0 0.0 2.0 0.00 0.00 0.00 90 1015.9
20260904210036 71 0 0.0 2.0 0.00 0.00 0.00 90 1016.1
20260904205525 71 0 0.0 2.0 0.00 0.00 0.00 90 1016.0
20260904205021 72 0 0.0 2.0 0.00 0.00 0.00 91 1016.0
20260904204537 72 0 0.0 3.0 0.00 0.00 0.00 91 1015.9
20260904204020 72 0 0.0 3.0 0.00 0.00 0.00 91 1015.8
20260904203519 72 0 0.0 2.0 0.00 0.00 0.00 90 1015.9
20260904203037 72 271 0.0 2.0 0.00 0.00 0.00 91 1015.8
20260904202518 72 0 0.0 1.0 0.00 0.00 0.00 90 1015.8
20260904202017 72 0 0.0 1.0 0.00 0.00 0.00 90 1015.8
20260904201534 72 0 0.0 3.0 0.00 0.00 0.00 90 1015.8
20260904201017 72 0 0.0 4.0 0.00 0.00 0.00 90 1015.8
20260904200521 72 0 0.0 4.0 0.00 0.00 0.00 90 1015.9
20260904200036 73 0 0.0 4.0 0.00 0.00 0.00 89 1015.9
20260904195521 73 0 0.0 2.0 0.00 0.00 0.00 89 1015.9
20260904195019 73 0 0.0 2.0 0.00 0.00 0.00 90 1015.8
20260904194539 73 0 0.0 2.0 0.00 0.00 0.00 90 1015.7
20260904194020 73 0 0.0 2.0 0.00 0.00 0.00 91 1015.8
20260904193519 73 0 0.0 2.0 0.00 0.00 0.00 91 1015.8
20260904193034 73 0 0.0 2.0 0.00 0.00 0.00 90 1015.6
20260904192517 73 0 0.0 3.0 0.00 0.00 0.00 91 1015.7
20260904192020 73 0 0.0 3.0 0.00 0.00 0.00 91 1015.7
20260904191535 73 0 0.0 3.0 0.00 0.00 0.00 90 1015.7
20260904191020 73 0 0.0 2.0 0.00 0.00 0.00 90 1015.7
20260904190520 73 0 0.0 2.0 0.00 0.00 0.00 90 1015.6
20260904190035 73 0 0.0 4.0 0.00 0.00 0.00 89 1015.6
20260904185519 73 0 0.0 4.0 0.00 0.00 0.00 89 1015.5
20260904185018 74 0 0.0 4.0 0.00 0.00 0.00 89 1015.4
20260904184538 74 0 0.0 4.0 0.00 0.00 0.00 89 1015.4
20260904184017 74 0 0.0 3.0 0.00 0.00 0.00 89 1015.3
20260904183521 74 0 0.0 3.0 0.00 0.00 0.00 89 1015.3
20260904183040 73 0 0.0 4.0 0.00 0.00 0.00 89 1015.2
20260904182520 74 0 0.0 4.0 0.00 0.00 0.00 89 1015.3
20260904182025 74 311 0.0 4.0 0.00 0.00 0.00 89 1015.3
20260904181552 73 0 0.0 3.0 0.00 0.00 0.00 91 1015.3
20260904181021 73 0 0.0 3.0 0.00 0.00 0.00 92 1015.3
20260904180522 73 0 0.0 3.0 0.00 0.00 0.00 91 1015.3
20260904180039 73 352 0.0 3.0 0.00 0.00 0.00 92 1015.3
20260904175516 72 0 0.0 0.0 0.00 0.00 0.00 93 1015.3
20260904175018 72 0 0.0 2.0 0.00 0.00 0.00 94 1015.3
20260904174534 72 0 0.0 2.0 0.00 0.00 0.00 94 1015.2
20260904174021 71 0 0.0 0.0 0.00 0.00 0.00 95 1015.2
20260904173520 71 0 0.0 0.0 0.00 0.00 0.00 95 1015.3
20260904173036 71 0 0.0 0.0 0.00 0.00 0.00 96 1015.2
20260904172520 71 0 0.0 1.0 0.00 0.00 0.00 95 1015.2
20260904172025 70 0 0.0 1.0 0.00 0.00 0.00 95 1015.2
20260904171540 70 0 0.0 0.0 0.00 0.00 0.00 96 1015.3
20260904171020 70 0 0.0 0.0 0.00 0.00 0.00 96 1015.2
20260904170516 70 0 0.0 0.0 0.00 0.00 0.00 96 1015.2
20260904170035 69 0 0.0 0.0 0.00 0.00 0.00 97 1015.2
20260904165522 69 0 0.0 1.0 0.00 0.00 0.00 97 1015.2
20260904165019 69 0 0.0 2.0 0.00 0.00 0.00 97 1015.2
20260904164541 69 0 0.0 2.0 0.00 0.00 0.00 97 1015.4
20260904164021 69 0 0.0 3.0 0.00 0.00 0.00 97 1015.4
20260904163522 69 0 1.0 3.0 0.00 0.00 0.00 98 1015.3
20260904163035 69 0 0.0 2.0 0.00 0.00 0.00 98 1015.3
20260904162520 68 0 0.0 2.0 0.00 0.00 0.00 98 1015.4
20260904162020 68 0 0.0 2.0 0.00 0.00 0.00 98 1015.4
20260904161535 68 323 0.0 3.0 0.00 0.00 0.00 98 1015.4
20260904161019 68 0 0.0 3.0 0.00 0.00 0.00 98 1015.4
20260904160519 67 0 0.0 2.0 0.00 0.00 0.00 98 1015.3
20260904160036 67 0 0.0 2.0 0.00 0.00 0.00 99 1015.5
20260904155516 67 0 0.0 2.0 0.00 0.00 0.00 99 1015.4
20260904155017 67 0 0.0 0.0 0.00 0.00 0.00 99 1015.4
20260904154545 67 0 0.0 0.0 0.00 0.00 0.00 99 1015.3
20260904154023 67 0 0.0 1.0 0.00 0.00 0.00 98 1015.2
20260904153520 67 0 0.0 1.0 0.00 0.00 0.00 98 1015.2
20260904153036 67 0 0.0 1.0 0.00 0.00 0.00 99 1015.1
20260904152524 67 0 0.0 2.0 0.00 0.00 0.00 99 1015.1
20260904152019 67 0 0.0 2.0 0.00 0.00 0.00 99 1015.1
20260904151538 66 0 0.0 2.0 0.00 0.00 0.00 99 1015.0
20260904151017 66 0 0.0 2.0 0.00 0.00 0.00 99 1015.0
20260904150518 66 0 0.0 1.0 0.00 0.00 0.00 99 1015.0
20260904150035 66 0 0.0 1.0 0.00 0.00 0.00 99 1014.9
20260904145516 66 0 0.0 1.0 0.00 0.00 0.00 99 1014.8
20260904145020 66 0 0.0 1.0 0.00 0.00 0.00 99 1014.7
20260904144535 66 0 0.0 1.0 0.00 0.00 0.00 98 1014.7
20260904144024 66 0 0.0 2.0 0.00 0.00 0.00 98 1014.6
20260904143520 66 0 0.0 2.0 0.00 0.00 0.00 99 1014.6
20260904143036 65 0 0.0 2.0 0.00 0.00 0.00 99 1014.5
20260904142520 65 0 0.0 1.0 0.00 0.00 0.00 98 1014.4
20260904142028 65 0 0.0 1.0 0.00 0.00 0.00 98 1014.4
20260904141542 65 0 0.0 1.0 0.00 0.00 0.00 98 1014.3
20260904141020 66 0 0.0 1.0 0.00 0.00 0.00 98 1014.3
20260904140519 66 0 0.0 1.0 0.00 0.00 0.00 98 1014.4
20260904140044 66 0 0.0 2.0 0.00 0.00 0.00 98 1014.3
20260904135521 67 0 0.0 3.0 0.00 0.00 0.00 98 1014.2
20260904135020 67 0 1.0 3.0 0.00 0.00 0.00 98 1014.2
20260904134534 69 323 0.0 0.0 0.00 0.00 0.00 99 1014.1
20260904134017 69 0 0.0 0.0 0.00 0.00 0.00 99 1014.1
20260904133522 69 0 0.0 0.0 0.00 0.00 0.00 99 1014.1
20260904133037 69 0 0.0 0.0 0.00 0.00 0.00 99 1014.0
20260904132520 69 0 0.0 3.0 0.00 0.00 0.00 99 1013.9
20260904132020 69 0 0.0 3.0 0.00 0.00 0.00 99 1013.8
20260904131533 69 0 1.0 3.0 0.00 0.00 0.00 99 1013.8
20260904131022 68 145 0.0 2.0 0.00 0.00 0.00 99 1013.7
20260904130519 68 0 0.0 7.0 0.00 0.00 0.00 99 1013.6
20260904130035 68 0 1.0 7.0 0.00 0.00 0.00 99 1013.6
20260904125518 68 134 3.0 7.0 0.00 0.00 0.00 99 1013.4
20260904125016 68 167 2.0 8.0 0.00 0.00 0.00 99 1013.4
20260904124535 68 148 2.0 8.0 0.00 0.00 0.00 99 1013.3
20260904124016 68 0 2.0 8.0 0.00 0.00 0.00 99 1013.2
20260904123522 68 116 3.0 5.0 0.00 0.00 0.00 99 1013.1
20260904123035 68 151 1.0 4.0 0.00 0.00 0.00 99 1013.1
20260904122523 68 132 1.0 4.0 0.00 0.00 0.00 99 1013.0
20260904122020 68 123 1.0 4.0 0.00 0.00 0.00 99 1012.9
20260904121534 68 123 0.0 4.0 0.00 0.00 0.00 99 1012.9
20260904121020 68 123 1.0 4.0 0.00 0.00 0.00 99 1012.8
20260904120520 68 116 2.0 4.0 0.00 0.00 0.00 99 1012.8
20260904120046 68 142 2.0 4.0 0.00 0.00 0.00 99 1012.7
20260904115518 67 123 1.0 4.0 0.00 0.00 0.00 98 1012.7
20260904115017 67 123 1.0 4.0 0.00 0.00 0.00 98 1012.7
20260904114536 67 123 0.0 3.0 0.00 0.00 0.00 98 1012.8
20260904114020 67 123 1.0 3.0 0.00 0.00 0.00 98 1012.8
20260904113520 67 123 1.0 4.0 0.00 0.00 0.00 98 1012.6
20260904113041 67 0 1.0 4.0 0.00 0.00 0.00 98 1012.7
20260904112520 67 105 1.0 6.0 0.00 0.00 0.00 98 1012.6
20260904112019 67 126 2.0 6.0 0.00 0.00 0.00 98 1012.6
20260904111537 67 128 2.0 5.0 0.00 0.00 0.00 98 1012.5
20260904111021 67 112 2.0 5.0 0.00 0.00 0.00 98 1012.6
20260904110520 66 157 1.0 5.0 0.00 0.00 0.00 98 1012.5
20260904110033 66 148 2.0 5.0 0.00 0.00 0.00 98 1012.5
20260904105520 66 0 1.0 5.0 0.00 0.00 0.00 98 1012.5
20260904105017 66 128 1.0 3.0 0.00 0.00 0.00 98 1012.4
20260904104548 65 0 0.0 3.0 0.00 0.00 0.00 97 1012.5
20260904104019 65 0 0.0 0.0 0.00 0.00 0.00 97 1012.7
20260904103515 65 0 0.0 0.0 0.00 0.00 0.00 97 1012.8
20260904103034 65 0 0.0 1.0 0.00 0.00 0.00 97 1013.0
20260904102518 65 0 0.0 2.0 0.00 0.00 0.00 96 1013.0
20260904102024 66 0 0.0 2.0 0.00 0.00 0.00 96 1013.0
20260904101533 66 128 0.0 3.0 0.00 0.00 0.00 97 1013.0
20260904101021 66 0 0.0 4.0 0.00 0.00 0.00 97 1012.8
20260904100521 66 128 0.0 4.0 0.00 0.00 0.00 97 1012.7
20260904100037 66 128 0.0 4.0 0.00 0.00 0.00 97 1012.8
20260904095523 66 0 0.0 4.0 0.00 0.00 0.00 97 1012.9
20260904095019 66 0 0.0 4.0 0.00 0.00 0.00 97 1012.8
20260904094536 66 146 1.0 5.0 0.00 0.00 0.00 97 1012.8
20260904094016 66 139 2.0 5.0 0.00 0.00 0.00 97 1012.9
20260904093518 66 132 2.0 7.0 0.00 0.00 0.00 98 1013.0
20260904093033 66 138 2.0 7.0 0.00 0.00 0.00 98 1012.6
20260904092519 65 140 0.0 2.0 0.00 0.00 0.00 97 1013.2
20260904092020 65 0 0.0 2.0 0.00 0.00 0.00 97 1013.6
20260904091537 65 187 0.0 2.0 0.00 0.00 0.00 97 1013.5
20260904091017 65 0 0.0 5.0 0.00 0.00 0.00 97 1013.4
20260904090516 65 0 0.0 5.0 0.00 0.00 0.00 96 1013.8
20260904090036 65 0 1.0 4.0 0.00 0.00 0.00 97 1014.3
20260904085521 65 339 1.0 4.0 0.00 0.00 0.00 97 1014.7
20260904085020 65 0 0.0 0.0 0.00 0.00 0.00 97 1013.6
20260904084539 65 0 0.0 0.0 0.00 0.00 0.00 97 1013.6
20260904084020 65 0 0.0 0.0 0.00 0.00 0.00 97 1013.4
20260904083519 65 0 0.0 0.0 0.00 0.00 0.00 97 1013.3
20260904083037 65 0 0.0 0.0 0.00 0.00 0.00 97 1013.3
20260904082518 65 0 0.0 0.0 0.00 0.00 0.00 97 1013.1
20260904082018 65 0 0.0 0.0 0.00 0.00 0.00 97 1013.1
20260904081535 65 0 0.0 0.0 0.00 0.00 0.00 97 1013.1
20260904081018 65 0 0.0 0.0 0.00 0.00 0.00 97 1013.0
20260904080516 65 0 0.0 0.0 0.00 0.00 0.00 97 1012.7
20260904080036 65 0 0.0 0.0 0.00 0.00 0.00 97 1012.7
20260904075521 65 0 0.0 0.0 0.00 0.00 0.00 97 1012.8
20260904075021 65 0 0.0 0.0 0.00 0.00 0.00 97 1012.8
20260904074534 65 0 0.0 0.0 0.00 0.00 0.00 97 1013.0
20260904074019 65 0 0.0 0.0 0.00 0.00 0.00 97 1012.9
20260904073518 64 0 0.0 0.0 0.00 0.00 0.00 97 1012.9
20260904073037 65 0 0.0 0.0 0.00 0.00 0.00 97 1012.8
20260904072517 64 0 0.0 0.0 0.00 0.00 0.00 97 1012.9
20260904072020 64 0 0.0 0.0 0.00 0.00 0.00 97 1012.8
20260904071542 64 0 0.0 0.0 0.00 0.00 0.00 97 1012.7
20260904071020 64 0 0.0 0.0 0.00 0.00 0.00 97 1012.8
20260904070520 64 0 0.0 2.0 0.00 0.00 0.00 97 1012.9
20260904070036 64 0 0.0 2.0 0.00 0.00 0.00 97 1012.9
20260904065521 64 190 0.0 2.0 0.00 0.00 0.00 96 1013.2
20260904065020 64 0 0.0 0.0 0.00 0.00 0.00 96 1013.5
20260904064538 64 0 0.0 0.0 0.00 0.00 0.00 96 1013.4
20260904064018 65 0 0.0 2.0 0.00 0.00 0.00 96 1013.5
20260904063518 65 0 0.0 2.0 0.00 0.00 0.00 97 1013.4
20260904063038 65 0 0.0 3.0 0.00 0.00 0.00 97 1013.5
20260904062519 65 0 0.0 3.0 0.00 0.00 0.00 97 1013.5
20260904062019 65 0 0.0 2.0 0.00 0.00 0.00 96 1013.5
20260904061540 65 0 0.0 2.0 0.00 0.00 0.00 96 1013.7
20260904061021 65 0 0.0 2.0 0.00 0.00 0.00 95 1013.9
20260904060521 65 0 0.0 1.0 0.00 0.00 0.00 95 1014.1
20260904060038 65 0 0.0 2.0 0.00 0.00 0.00 95 1014.2
20260904055517 65 0 0.0 3.0 0.00 0.00 0.00 95 1014.3
20260904055015 65 0 0.0 3.0 0.00 0.00 0.00 95 1014.2
20260904054540 65 190 0.0 2.0 0.00 0.00 0.00 95 1014.0
20260904054023 65 0 0.0 1.0 0.00 0.00 0.00 95 1014.0
20260904053521 65 0 0.0 3.0 0.00 0.00 0.00 94 1014.1
20260904053040 65 0 0.0 3.0 0.00 0.00 0.00 95 1014.3
20260904052517 65 0 0.0 2.0 0.00 0.00 0.00 95 1014.2
20260904052016 65 0 0.0 2.0 0.00 0.00 0.00 94 1014.4
20260904051535 65 0 0.0 1.0 0.00 0.00 0.00 94 1014.4
20260904051019 65 0 0.0 2.0 0.00 0.00 0.00 94 1014.3
20260904050524 65 0 0.0 2.0 0.00 0.00 0.00 94 1014.2
20260904050037 65 0 0.0 2.0 0.00 0.00 0.00 94 1014.2
20260904045524 65 0 0.0 2.0 0.00 0.00 0.00 94 1014.2
20260904045019 65 0 0.0 8.0 0.00 0.00 0.00 94 1014.2
20260904044536 65 0 1.0 8.0 0.00 0.00 0.00 94 1014.3
20260904044016 65 350 2.0 8.0 0.00 0.00 0.00 93 1014.4
20260904043520 65 0 0.0 4.0 0.00 0.00 0.00 94 1014.5
20260904043037 66 290 1.0 4.0 0.00 0.00 0.00 94 1014.5
20260904042521 66 0 0.0 0.0 0.00 0.00 0.00 95 1014.3
20260904042022 65 0 0.0 2.0 0.00 0.00 0.00 94 1014.1
20260904041537 65 0 0.0 2.0 0.00 0.00 0.00 94 1014.0
20260904041016 65 298 0.0 4.0 0.00 0.00 0.00 94 1013.8
20260904040517 65 0 0.0 4.0 0.00 0.00 0.00 94 1013.7
20260904040039 65 283 1.0 4.0 0.00 0.00 0.00 94 1013.8
20260904035522 65 334 1.0 4.0 0.00 0.00 0.00 94 1013.6
20260904035021 65 0 0.0 3.0 0.00 0.00 0.00 95 1013.7
20260904034536 65 0 0.0 0.0 0.00 0.00 0.00 94 1013.5
20260904034019 65 0 0.0 0.0 0.00 0.00 0.00 94 1013.4
20260904033520 65 0 0.0 0.0 0.00 0.00 0.00 94 1013.5
20260904033038 65 0 0.0 0.0 0.00 0.00 0.00 94 1013.7
20260904032518 65 0 0.0 0.0 0.00 0.00 0.00 93 1013.7
20260904032018 65 0 0.0 0.0 0.00 0.00 0.00 93 1013.8
20260904031536 65 0 0.0 0.0 0.00 0.00 0.00 93 1014.0
20260904031020 65 0 0.0 1.0 0.00 0.00 0.00 93 1014.0
20260904030522 65 0 0.0 1.0 0.00 0.00 0.00 93 1014.0
20260904030034 65 0 0.0 1.0 0.00 0.00 0.00 93 1013.9
20260904025522 66 0 0.0 0.0 0.00 0.00 0.00 94 1013.9
20260904025021 66 0 0.0 0.0 0.00 0.00 0.00 93 1013.7
20260904024538 66 0 0.0 2.0 0.00 0.00 0.00 93 1013.6
20260904024021 66 0 0.0 2.0 0.00 0.00 0.00 93 1013.6
20260904023520 66 0 0.0 2.0 0.00 0.00 0.00 92 1013.6
20260904023036 66 327 0.0 2.0 0.00 0.00 0.00 91 1013.5
20260904022518 67 0 0.0 0.0 0.00 0.00 0.00 92 1013.3
20260904022021 67 0 0.0 0.0 0.00 0.00 0.00 91 1013.3
20260904021548 68 0 0.0 0.0 0.00 0.00 0.00 89 1013.2
20260904021022 68 0 0.0 0.0 0.00 0.00 0.00 89 1013.2
20260904020521 68 0 0.0 2.0 0.00 0.00 0.00 88 1013.2
20260904020036 68 0 0.0 2.0 0.00 0.00 0.00 88 1013.1
20260904015519 68 174 0.0 2.0 0.00 0.00 0.00 87 1013.4
20260904015022 69 0 0.0 0.0 0.00 0.00 0.00 87 1013.5
20260904014539 69 0 0.0 3.0 0.00 0.00 0.00 87 1013.6
20260904014020 69 0 0.0 3.0 0.00 0.00 0.00 87 1013.5
20260904013520 69 0 0.0 3.0 0.00 0.00 0.00 86 1013.6
20260904013033 69 0 0.0 2.0 0.00 0.00 0.00 84 1013.8
20260904012521 69 0 0.0 0.0 0.00 0.00 0.00 84 1013.7
20260904012022 69 0 0.0 0.0 0.00 0.00 0.00 83 1013.5
20260904011548 69 0 0.0 0.0 0.00 0.00 0.00 82 1013.7
20260904011020 69 0 0.0 0.0 0.00 0.00 0.00 83 1013.6
20260904010521 69 0 0.0 0.0 0.00 0.00 0.00 82 1013.7
20260904010036 70 0 0.0 0.0 0.00 0.00 0.00 81 1013.7
20260904005523 70 0 0.0 0.0 0.00 0.00 0.00 81 1013.6
20260904005019 70 0 0.0 0.0 0.00 0.00 0.00 81 1013.4
20260904004537 70 0 0.0 0.0 0.00 0.00 0.00 80 1013.6
20260904004019 71 0 0.0 0.0 0.00 0.00 0.00 80 1013.6
20260904003520 71 0 0.0 0.0 0.00 0.00 0.00 80 1013.7
20260904003035 71 0 0.0 2.0 0.00 0.00 0.00 80 1013.3
20260904002517 71 0 0.0 2.0 0.00 0.00 0.00 80 1013.5
20260904002020 72 307 0.0 1.0 0.00 0.00 0.00 80 1013.3
20260904001535 72 0 0.0 0.0 0.00 0.00 0.00 80 1013.3
20260904001020 72 0 0.0 0.0 0.00 0.00 0.00 79 1013.5
20260904000523 72 0 0.0 0.0 0.00 0.00 0.00 79 1013.6
20260904000039 72 0 0.0 2.0 0.00 0.00 0.00 79 1013.3
20260903235523 72 0 0.0 2.0 0.00 0.00 0.00 77 1013.4
20260903235022 73 0 0.0 1.0 0.00 0.00 0.00 77 1013.4
20260903234537 73 0 0.0 1.0 0.00 0.00 0.00 77 1013.3
20260903234016 73 0 0.0 2.0 0.00 0.00 0.00 78 1013.6
20260903233517 73 0 0.0 2.0 0.00 0.00 0.00 78 1013.2
20260903233035 73 307 0.0 2.0 0.00 0.00 0.00 77 1012.9
20260903232519 73 0 0.0 2.0 0.00 0.00 0.00 76 1013.2
20260903232018 74 0 0.0 1.0 0.00 0.00 0.00 75 1013.2
20260903231535 74 0 0.0 3.0 0.00 0.00 0.00 74 1013.1
20260903231016 75 0 0.0 3.0 0.00 0.00 0.00 73 1013.0
20260903230521 75 0 0.0 3.0 0.00 0.00 0.00 73 1012.9
20260903230038 76 0 0.0 2.0 0.00 0.00 0.00 73 1012.9
20260903225524 76 0 0.0 3.0 0.00 0.00 0.00 73 1012.7
20260903225021 76 0 0.0 3.0 0.00 0.00 0.00 72 1012.8
20260903224537 76 0 0.0 2.0 0.00 0.00 0.00 72 1012.9
20260903224019 77 0 0.0 2.0 0.00 0.00 0.00 71 1013.1
20260903223518 77 0 0.0 3.0 0.00 0.00 0.00 70 1013.0
20260903223042 78 0 0.0 4.0 0.00 0.00 0.00 69 1013.0
20260903222516 78 0 0.0 4.0 0.00 0.00 0.00 69 1012.9